Date,TemperatureHighF,TemperatureAvgF,TemperatureLowF,DewpointHighF,DewpointAvgF,DewpointLowF,HumidityHigh,HumidityAvg,HumidityLow,PressureMaxIn,PressureMinIn,WindSpeedMaxMPH,WindSpeedAvgMPH,GustSpeedMaxMPH,PrecipitationSumIn
2013-4-1,80.8,69.4,63.2,69.8,63.1,59.9,90,81,56,30.03,29.94,19,2,19,0.00
2013-4-2,82.8,73.7,68.0,68.8,65.5,63.0,95,77,54,30.06,29.96,15,2,15,0.00
2013-4-3,88.0,76.8,68.2,70.7,66.5,61.2,91,72,45,30.03,29.90,18,3,18,0.00
2013-4-4,82.0,73.2,65.8,72.5,67.7,63.0,93,83,71,29.99,29.84,26,2,26,0.61
2013-4-5,66.1,66.1,66.1,64.0,64.0,64.0,93,93,93,29.99,29.75,2,2,2,0.00
2013-4-6,79.2,68.9,63.1,64.0,61.5,54.8,93,79,53,30.01,29.89,14,3,14,0.00
2013-4-7,84.3,72.0,63.2,65.0,61.5,56.9,93,72,41,30.10,29.94,10,2,17,0.00
2013-4-8,84.8,75.4,68.0,66.4,62.5,57.4,84,66,41,30.08,29.99,12,2,13,0.00
2013-4-9,85.8,75.8,71.4,67.4,62.7,59.5,75,65,43,30.10,30.01,18,2,18,0.00
2013-4-10,87.0,76.4,68.4,73.4,68.5,65.3,93,77,55,30.06,29.93,17,3,17,0.07
2013-4-11,86.8,78.1,72.7,73.7,71.3,69.9,93,80,59,29.97,29.82,20,3,20,0.00
2013-4-12,86.3,79.0,76.4,73.6,72.0,66.5,88,80,60,29.91,29.84,19,3,19,0.00
2013-4-13,86.5,79.6,76.3,72.6,71.4,67.2,88,77,58,29.94,29.80,13,1,13,0.00
2013-4-14,88.3,80.2,74.3,75.6,72.5,68.7,94,78,57,29.94,29.81,18,2,18,0.00
2013-4-15,88.7,79.0,67.3,75.0,70.5,60.9,92,76,60,30.03,29.89,14,2,14,0.00
2013-4-16,91.2,78.7,71.2,73.9,70.0,68.0,92,76,49,30.09,29.98,19,2,19,0.00
2013-4-17,86.8,78.3,70.0,71.3,68.4,65.2,94,73,51,30.08,29.97,14,3,14,0.00
2013-4-18,88.4,77.1,72.7,75.3,68.9,59.8,93,77,52,30.02,29.90,16,2,17,0.31
2013-4-19,89.0,79.3,73.5,74.3,72.3,66.8,95,81,50,29.99,29.90,22,2,22,0.00
2013-4-20,86.1,77.4,73.0,74.6,71.2,67.3,91,82,63,30.08,29.92,15,2,15,0.00
2013-4-21,87.0,75.7,66.1,72.1,68.9,61.8,93,80,54,30.08,29.93,21,3,21,0.32
2013-4-22,82.1,73.5,69.0,72.3,68.6,66.9,93,85,65,30.04,29.90,11,1,11,0.08
2013-4-23,85.6,75.9,69.3,69.2,66.1,63.1,90,73,50,30.06,29.95,15,4,15,0.00
2013-4-24,85.1,76.7,63.4,71.8,65.4,61.7,95,69,47,30.11,30.01,14,3,14,0.00
2013-4-25,86.8,78.3,67.0,69.4,64.5,54.4,95,65,36,30.17,30.04,12,1,12,0.00
2013-4-26,85.9,76.1,68.8,65.8,63.5,61.7,84,67,46,30.20,30.10,17,2,17,0.00
2013-4-27,85.3,77.8,68.6,66.2,63.3,60.2,89,62,48,30.18,30.03,17,2,17,0.00
2013-4-28,87.1,77.5,69.1,71.3,64.1,55.6,84,64,46,30.08,29.93,15,2,15,0.00
2013-4-29,84.7,76.0,70.6,70.9,66.2,61.3,86,72,59,29.99,29.89,16,2,16,0.00
2013-4-30,85.2,76.1,71.1,73.5,69.6,67.2,95,81,60,29.96,29.88,10,1,19,0.00